When you browse on this site, cookies collect data to enhance your experience and personalize the content and advertising you see.
Visit our Privacy Policy to learn more. By continuing to use the site, you agree to this use of cookies and data.
  • In United Kingdom
  • List of Countries
  • For 7 days
  • Water Temperature
  • Weather Map
  • Weather Widgets
  • user-avatar
    Login

    Hourly Weather Hajdarabad

    Today, 20 September, Friday

    Time Temperature Precipitation Wind Pressure Humidity
    00:00 +35°C° 0 mm 2 mps 750 mmHg 26%
    01:00 +35°C° 0 mm 3 mps 750 mmHg 26%
    02:00 +34°C° 0 mm 4 mps 750 mmHg 26%
    03:00 +34°C° 0 mm 4 mps 750 mmHg 26%
    04:00 +34°C° 0 mm 4 mps 749 mmHg 26%
    05:00 +34°C° 0 mm 3 mps 749 mmHg 26%
    06:00 +35°C° 0 mm 3 mps 750 mmHg 24%
    07:00 +36°C° 0 mm 3 mps 750 mmHg 23%
    08:00 +37°C° 0 mm 2 mps 751 mmHg 21%
    09:00 +39°C° 0 mm 2 mps 751 mmHg 18%
    10:00 +41°C° 0 mm 1 mps 751 mmHg 15%
    11:00 +43°C° 0 mm 1 mps 751 mmHg 12%
    12:00 +43°C° 0 mm 1 mps 750 mmHg 12%
    13:00 +45°C° 0 mm 2 mps 749 mmHg 12%
    14:00 +45°C° 0 mm 2 mps 748 mmHg 11%
    15:00 +45°C° 0 mm 2 mps 748 mmHg 11%
    16:00 +45°C° 0 mm 2 mps 748 mmHg 11%
    17:00 +45°C° 0 mm 2 mps 748 mmHg 11%
    18:00 +43°C° 0 mm 3 mps 748 mmHg 15%
    19:00 +41°C° 0 mm 4 mps 749 mmHg 20%
    20:00 +40°C° 0 mm 4 mps 749 mmHg 24%
    21:00 +38°C° 0 mm 4 mps 749 mmHg 27%
    22:00 +37°C° 0 mm 4 mps 749 mmHg 29%
    23:00 +36°C° 0 mm 4 mps 749 mmHg 32%

    Tomorrow, 21 September, Saturday

    Time Temperature Precipitation Wind Pressure Humidity
    00:00 +36°C° 0 mm 4 mps 749 mmHg 33%
    01:00 +35°C° 0 mm 4 mps 749 mmHg 35%
    02:00 +34°C° 0 mm 4 mps 748 mmHg 36%
    03:00 +34°C° 0 mm 4 mps 748 mmHg 35%
    04:00 +34°C° 0 mm 3 mps 748 mmHg 35%
    05:00 +34°C° 0 mm 3 mps 748 mmHg 34%
    06:00 +34°C° 0 mm 3 mps 749 mmHg 35%
    07:00 +34°C° 0 mm 3 mps 749 mmHg 36%
    08:00 +34°C° 0 mm 3 mps 750 mmHg 38%
    09:00 +37°C° 0 mm 3 mps 750 mmHg 33%
    10:00 +39°C° 0 mm 2 mps 750 mmHg 28%
    11:00 +41°C° 0 mm 2 mps 750 mmHg 23%
    12:00 +42°C° 0 mm 2 mps 749 mmHg 20%
    13:00 +43°C° 0 mm 2 mps 748 mmHg 18%
    14:00 +45°C° 0 mm 2 mps 747 mmHg 16%
    15:00 +45°C° 0 mm 3 mps 747 mmHg 16%
    16:00 +45°C° 0 mm 3 mps 747 mmHg 16%
    17:00 +45°C° 0 mm 4 mps 747 mmHg 15%
    18:00 +43°C° 0 mm 5 mps 747 mmHg 21%
    19:00 +41°C° 0 mm 5 mps 748 mmHg 27%
    20:00 +39°C° 0 mm 6 mps 748 mmHg 32%
    21:00 +39°C° 0 mm 6 mps 748 mmHg 36%
    22:00 +38°C° 0 mm 6 mps 749 mmHg 39%
    23:00 +36°C° 0 mm 6 mps 749 mmHg 42%

    Day after tomorrow, 22 September, Sunday

    Time Temperature Precipitation Wind Pressure Humidity
    00:00 +35°C° 0 mm 5 mps 749 mmHg 43%
    01:00 +35°C° 0 mm 4 mps 749 mmHg 44%
    02:00 +34°C° 0 mm 4 mps 749 mmHg 45%
    03:00 +34°C° 0 mm 4 mps 749 mmHg 47%
    04:00 +33°C° 0 mm 4 mps 749 mmHg 48%
    05:00 +33°C° 0 mm 4 mps 748 mmHg 50%
    06:00 +34°C° 0 mm 3 mps 749 mmHg 48%
    07:00 +34°C° 0 mm 3 mps 750 mmHg 46%
    08:00 +35°C° 0 mm 3 mps 750 mmHg 44%
    09:00 +37°C° 0 mm 3 mps 750 mmHg 38%
    10:00 +39°C° 0 mm 2 mps 750 mmHg 31%
    11:00 +41°C° 0 mm 2 mps 750 mmHg 25%
    12:00 +42°C° 0 mm 2 mps 750 mmHg 23%
    13:00 +44°C° 0 mm 3 mps 749 mmHg 22%
    14:00 +45°C° 0 mm 3 mps 749 mmHg 20%
    15:00 +45°C° 0 mm 4 mps 749 mmHg 20%
    16:00 +45°C° 0 mm 4 mps 748 mmHg 20%
    17:00 +46°C° 0 mm 5 mps 748 mmHg 20%
    18:00 +43°C° 0 mm 5 mps 749 mmHg 25%
    19:00 +41°C° 0 mm 5 mps 749 mmHg 29%
    20:00 +40°C° 0 mm 5 mps 750 mmHg 34%
    21:00 +39°C° 0 mm 5 mps 750 mmHg 39%
    22:00 +37°C° 0 mm 5 mps 750 mmHg 44%
    23:00 +36°C° 0 mm 6 mps 750 mmHg 48%

    23 September, Monday

    Time Temperature Precipitation Wind Pressure Humidity
    00:00 +35°C° 0 mm 5 mps 750 mmHg 49%
    01:00 +35°C° 0 mm 4 mps 750 mmHg 49%
    02:00 +35°C° 0 mm 3 mps 750 mmHg 49%
    03:00 +34°C° 0 mm 3 mps 750 mmHg 50%
    04:00 +34°C° 0 mm 3 mps 750 mmHg 50%
    05:00 +34°C° 0 mm 3 mps 750 mmHg 51%
    06:00 +34°C° 0 mm 3 mps 751 mmHg 49%
    07:00 +35°C° 0 mm 3 mps 751 mmHg 47%
    08:00 +35°C° 0 mm 3 mps 752 mmHg 44%
    09:00 +37°C° 0 mm 3 mps 752 mmHg 40%
    10:00 +39°C° 0 mm 3 mps 752 mmHg 36%
    11:00 +41°C° 0 mm 2 mps 752 mmHg 31%
    12:00 +41°C° 0 mm 2 mps 751 mmHg 29%
    13:00 +42°C° 0 mm 2 mps 751 mmHg 27%
    14:00 +43°C° 0 mm 2 mps 750 mmHg 25%
    15:00 +43°C° 0 mm 2 mps 750 mmHg 24%
    16:00 +43°C° 0 mm 2 mps 749 mmHg 24%
    17:00 +43°C° 0 mm 2 mps 749 mmHg 24%
    18:00 +42°C° 0 mm 4 mps 750 mmHg 29%
    19:00 +41°C° 0 mm 5 mps 750 mmHg 35%
    20:00 +39°C° 0 mm 6 mps 750 mmHg 40%
    21:00 +38°C° 0 mm 6 mps 750 mmHg 43%
    22:00 +36°C° 0 mm 5 mps 751 mmHg 46%
    23:00 +36°C° 0 mm 5 mps 751 mmHg 50%

    24 September, Tuesday

    Time Temperature Precipitation Wind Pressure Humidity
    00:00 +35°C° 0 mm 5 mps 751 mmHg 50%
    01:00 +35°C° 0 mm 6 mps 750 mmHg 51%
    02:00 +35°C° 0 mm 6 mps 750 mmHg 52%
    03:00 +34°C° 0 mm 5 mps 750 mmHg 52%
    04:00 +34°C° 0 mm 5 mps 750 mmHg 52%
    05:00 +34°C° 0 mm 4 mps 751 mmHg 52%
    06:00 +34°C° 0 mm 4 mps 751 mmHg 52%
    07:00 +34°C° 0 mm 5 mps 751 mmHg 53%
    08:00 +34°C° 0 mm 5 mps 752 mmHg 54%
    09:00 +36°C° 0 mm 5 mps 752 mmHg 47%
    10:00 +39°C° 0 mm 5 mps 752 mmHg 40%
    11:00 +41°C° 0 mm 4 mps 752 mmHg 33%
    12:00 +42°C° 0 mm 3 mps 751 mmHg 31%
    13:00 +42°C° 0 mm 2 mps 750 mmHg 28%
    14:00 +43°C° 0 mm 1 mps 750 mmHg 26%
    15:00 +43°C° 0 mm 2 mps 749 mmHg 25%
    16:00 +43°C° 0 mm 2 mps 749 mmHg 25%
    17:00 +43°C° 0 mm 2 mps 749 mmHg 25%
    18:00 +42°C° 0 mm 3 mps 750 mmHg 29%
    19:00 +40°C° 0 mm 5 mps 750 mmHg 34%
    20:00 +39°C° 0 mm 6 mps 750 mmHg 39%
    21:00 +38°C° 0 mm 6 mps 751 mmHg 43%
    22:00 +36°C° 0 mm 7 mps 751 mmHg 47%
    23:00 +35°C° 0 mm 7 mps 751 mmHg 52%

    25 September, Wednesday

    Time Temperature Precipitation Wind Pressure Humidity
    00:00 +34°C° 0 mm 6 mps 751 mmHg 54%
    01:00 +34°C° 0 mm 6 mps 751 mmHg 57%
    02:00 +33°C° 0 mm 6 mps 750 mmHg 59%
    03:00 +33°C° 0 mm 6 mps 750 mmHg 58%
    04:00 +33°C° 0 mm 5 mps 751 mmHg 57%
    05:00 +33°C° 0 mm 5 mps 751 mmHg 56%
    06:00 +33°C° 0 mm 4 mps 751 mmHg 54%
    07:00 +33°C° 0 mm 4 mps 751 mmHg 53%
    08:00 +34°C° 0 mm 4 mps 752 mmHg 52%
    09:00 +35°C° 0 mm 4 mps 752 mmHg 46%
    10:00 +37°C° 0 mm 4 mps 753 mmHg 40%
    11:00 +40°C° 0 mm 4 mps 753 mmHg 34%
    12:00 +40°C° 0 mm 3 mps 752 mmHg 32%
    13:00 +42°C° 0 mm 3 mps 752 mmHg 30%
    14:00 +42°C° 0 mm 2 mps 751 mmHg 28%
    15:00 +42°C° 0 mm 3 mps 751 mmHg 29%
    16:00 +42°C° 0 mm 3 mps 751 mmHg 30%
    17:00 +42°C° 0 mm 3 mps 751 mmHg 31%
    18:00 +40°C° 0.4 mm 4 mps 751 mmHg 36%
    19:00 +37°C° 0.4 mm 5 mps 752 mmHg 42%
    20:00 +36°C° 0.4 mm 5 mps 752 mmHg 47%
    21:00 +35°C° 0.1 mm 5 mps 752 mmHg 49%
    22:00 +35°C° 0.1 mm 4 mps 753 mmHg 51%
    23:00 +35°C° 0.1 mm 4 mps 753 mmHg 52%
    Show more